Change the Weather History Date:

Saturday, April 6, 2013

  Actual Average (KRST) Record (KRST)
Temperature  
Mean Temperature 46 °F 42 °F  
Max Temperature 56 °F 52 °F 89 °F (1991)
Min Temperature 35 °F 33 °F 5 °F (1982)
Degree Days  
Heating Degree Days 20 23  
Month to date heating degree days 144  
Since 1 July heating degree days 7016  
Cooling Degree Days 0 0  
Month to date cooling degree days 0  
Year to date cooling degree days 0  
Moisture  
Dew Point 35 °F    
Average Humidity 74    
Maximum Humidity 97    
Minimum Humidity 59    
Precipitation  
Precipitation 0.12 in 0.09 in 0.80 in (1919)
Month to date precipitation 0.52  
Year to date precipitation 4.09  
Snow  
Snow 0.00 in 0.10 in 2.50 in (1938)
Month to date snowfall 0.9  
Since 1 July snowfall 49.5  
Snow Depth -    
Sea Level Pressure  
Sea Level Pressure 29.68 in    
Wind  
Wind Speed 15 mph (South)    
Max Wind Speed 22 mph    
Max Gust Speed 30 mph    
Visibility 8 miles    
Events Rain    
T = Trace of Precipitation, MM = Missing Value Source: NWS Daily Summary

Daily Weather History Graph

Daily Weather History Graph

Search for Another Location

Airport or City:

Trip Planner

Search our weather history database for the weather conditions in past years. The results will help you decide how hot, cold, wet, or windy it might be!

Date:

Astronomy

Apr. 06, 2013 Rise Set
Actual Time 6:40 AM CDT 7:41 PM CDT
Civil Twilight 6:11 AM CDT 8:11 PM CDT
Nautical Twilight 5:36 AM CDT 8:46 PM CDT
Astronomical Twilight 5:00 AM CDT 9:22 PM CDT
Moon 4:31 AM CDT 4:04 PM CDT
Length of Visible Light 13h 59m
Length of Day
13h 00m
Waning Crescent, 15% of the Moon is Illuminated
Apr 6
Waning Crescent
Apr 10
New
Apr 18
First Quarter
Apr 25
Full
May 2
Last Quarter

Hourly Weather History & Observations

Time (CDT) Temp. Windchill Dew Point Humidity Pressure Visibility Wind Dir Wind Speed Gust Speed Precip Events Conditions
12:17 AM 39.4 °F 31.4 °F 27.7 °F 63% 29.92 in 10.0 mi SE 13.8 mph 19.6 mph N/A   Overcast
12:37 AM 39.4 °F 32.3 °F 27.9 °F 63% 29.93 in 10.0 mi SE 11.5 mph - N/A   Scattered Clouds
12:57 AM 39.2 °F 31.6 °F 27.9 °F 64% 29.92 in 10.0 mi SE 12.7 mph 18.4 mph N/A   Clear
1:17 AM 39.6 °F 30.6 °F 27.9 °F 63% 29.91 in 10.0 mi SE 17.3 mph 21.9 mph N/A   Clear
1:37 AM 39.6 °F 30.6 °F 28.2 °F 64% 29.91 in 10.0 mi SE 17.3 mph 24.2 mph N/A   Scattered Clouds
1:56 AM 39.4 °F 31.1 °F 28.4 °F 65% 29.90 in 10.0 mi SE 15.0 mph 24.2 mph N/A   Scattered Clouds
2:16 AM 39.2 °F 30.2 °F 29.3 °F 68% 29.89 in 10.0 mi SE 17.3 mph 20.7 mph N/A   Mostly Cloudy
2:37 AM 39.2 °F 30.5 °F 29.3 °F 68% 29.87 in 10.0 mi SE 16.1 mph 23.0 mph N/A   Overcast
2:58 AM 38.7 °F 30.1 °F 29.3 °F 69% 29.87 in 10.0 mi SE 15.0 mph 21.9 mph N/A   Mostly Cloudy
3:17 AM 38.3 °F 28.4 °F 28.4 °F 68% 29.85 in 10.0 mi SE 19.6 mph 27.6 mph N/A   Overcast
3:37 AM 37.8 °F 27.7 °F 27.0 °F 65% 29.85 in 10.0 mi SE 19.6 mph 26.5 mph N/A   Overcast
3:57 AM 37.4 °F 26.6 °F 25.9 °F 63% 29.84 in 10.0 mi SE 21.9 mph 27.6 mph N/A   Mostly Cloudy
4:17 AM 36.7 °F 27.6 °F 24.6 °F 62% 29.83 in 10.0 mi SE 15.0 mph 20.7 mph N/A   Scattered Clouds
4:37 AM 36.5 °F 27.0 °F 23.5 °F 59% 29.82 in 10.0 mi SE 16.1 mph 23.0 mph N/A   Scattered Clouds
4:57 AM 36.0 °F 27.1 °F 23.7 °F 61% 29.81 in 10.0 mi SE 13.8 mph 23.0 mph N/A   Scattered Clouds
5:17 AM 35.8 °F 26.5 °F 23.0 °F 60% 29.80 in 10.0 mi SE 15.0 mph 20.7 mph N/A   Clear
5:37 AM 35.6 °F 26.2 °F 22.6 °F 59% 29.79 in 10.0 mi SE 15.0 mph 20.7 mph N/A   Clear
5:56 AM 35.8 °F 26.5 °F 22.8 °F 59% 29.78 in 10.0 mi SE 15.0 mph 23.0 mph N/A   Scattered Clouds
6:17 AM 35.8 °F 26.9 °F 22.8 °F 59% 29.77 in 10.0 mi SSE 13.8 mph - N/A   Scattered Clouds
6:36 AM 35.8 °F 27.3 °F 23.0 °F 60% 29.77 in 10.0 mi SE 12.7 mph 18.4 mph N/A   Clear
6:57 AM 35.8 °F 27.8 °F 23.0 °F 60% 29.75 in 10.0 mi SE 11.5 mph - N/A   Clear
7:18 AM 35.8 °F 26.9 °F 23.5 °F 61% 29.75 in 10.0 mi SE 13.8 mph 23.0 mph N/A   Clear
7:37 AM 36.0 °F 26.7 °F 23.9 °F 62% 29.74 in 10.0 mi SE 15.0 mph 19.6 mph N/A   Clear
7:57 AM 36.5 °F 27.4 °F 24.6 °F 62% 29.72 in 10.0 mi SE 15.0 mph - N/A   Clear
8:18 AM 36.5 °F 28.2 °F 25.7 °F 65% 29.72 in 10.0 mi SE 12.7 mph 16.1 mph N/A   Scattered Clouds
8:37 AM 36.9 °F 30.1 °F 26.2 °F 65% 29.71 in 10.0 mi SSE 9.2 mph 17.3 mph N/A   Scattered Clouds
8:57 AM 37.4 °F 30.3 °F 27.1 °F 66% 29.69 in 10.0 mi SE 10.4 mph - N/A   Clear
9:17 AM 37.9 °F 30.0 °F 28.2 °F 68% 29.68 in 10.0 mi SE 12.7 mph 17.3 mph N/A   Clear
9:37 AM 38.5 °F 31.1 °F 28.9 °F 69% 29.66 in 10.0 mi SSE 11.5 mph - N/A   Scattered Clouds
9:57 AM 39.9 °F 33.9 °F 30.0 °F 68% 29.65 in 10.0 mi SSE 9.2 mph - N/A   Scattered Clouds
10:17 AM 41.9 °F 35.4 °F 31.5 °F 66% 29.64 in 10.0 mi SE 11.5 mph - N/A   Clear
10:37 AM 44.1 °F 38.1 °F 32.7 °F 64% 29.63 in 10.0 mi SSE 11.5 mph - N/A   Clear
10:57 AM 47.1 °F - 35.1 °F 63% 29.63 in 10.0 mi South 16.1 mph - N/A   Clear
11:17 AM 49.5 °F - 36.7 °F 61% 29.62 in 10.0 mi South 19.6 mph 26.5 mph N/A   Clear
11:37 AM 50.9 °F - 37.6 °F 60% 29.61 in 10.0 mi South 19.6 mph 25.3 mph N/A   Clear
11:58 AM 50.9 °F - 38.3 °F 62% 29.60 in 10.0 mi South 16.1 mph 27.6 mph N/A   Clear
12:17 PM 52.3 °F - 39.7 °F 62% 29.60 in 10.0 mi South 13.8 mph 24.2 mph N/A   Clear
12:37 PM 54.7 °F - 42.1 °F 62% 29.58 in 10.0 mi South 15.0 mph 19.6 mph N/A   Clear
12:57 PM 55.9 °F - 42.8 °F 61% 29.57 in 10.0 mi South 16.1 mph 23.0 mph N/A   Mostly Cloudy
1:17 PM 56.5 °F - 43.2 °F 61% 29.57 in 10.0 mi SSW 16.1 mph 25.3 mph N/A   Overcast
1:37 PM 56.5 °F - 43.7 °F 62% 29.56 in 10.0 mi SSW 15.0 mph - N/A   Overcast
1:57 PM 55.6 °F - 43.9 °F 65% 29.55 in 10.0 mi South 12.7 mph - N/A   Overcast
2:17 PM 55.4 °F - 44.2 °F 66% 29.55 in 10.0 mi SSW 12.7 mph - N/A   Overcast
2:37 PM 55.4 °F - 43.9 °F 65% 29.54 in 10.0 mi SSW 11.5 mph 19.6 mph N/A   Overcast
2:57 PM 54.5 °F - 44.2 °F 68% 29.54 in 10.0 mi SSW 13.8 mph 19.6 mph N/A   Overcast
3:17 PM 53.1 °F - 44.6 °F 73% 29.53 in 10.0 mi South 20.7 mph 28.8 mph N/A Rain Light Rain
3:37 PM 50.0 °F - 46.2 °F 87% 29.53 in 5.0 mi SSW 12.7 mph - 0.02 in Rain Light Rain
3:57 PM 50.0 °F - 46.4 °F 87% 29.53 in 7.0 mi SSW 11.5 mph - 0.02 in Rain Rain
4:17 PM 49.5 °F - 46.6 °F 90% 29.52 in 10.0 mi SSW 10.4 mph - 0.01 in   Overcast
4:38 PM 49.3 °F - 46.6 °F 90% 29.52 in 3.0 mi SSW 11.5 mph - 0.03 in Rain Rain
4:57 PM 49.1 °F - 47.3 °F 93% 29.51 in 3.0 mi SSW 11.5 mph - 0.07 in Rain Rain
5:18 PM 48.6 °F - 47.3 °F 95% 29.51 in 4.0 mi SSW 10.4 mph - 0.02 in Rain Light Rain
5:37 PM 48.7 °F - 47.7 °F 96% 29.52 in 4.0 mi SW 13.8 mph - 0.02 in   Overcast
5:57 PM 47.5 °F - 45.9 °F 94% 29.54 in 5.0 mi WSW 16.1 mph 29.9 mph 0.02 in   Overcast
6:17 PM 46.2 °F 39.8 °F 44.1 °F 92% 29.55 in 7.0 mi WSW 15.0 mph 24.2 mph N/A   Overcast
6:37 PM 45.9 °F 38.8 °F 43.7 °F 92% 29.57 in 5.0 mi WSW 17.3 mph 26.5 mph N/A   Overcast
6:56 PM 45.5 °F 38.3 °F 43.9 °F 94% 29.58 in 1.5 mi West 17.3 mph 27.6 mph N/A   Drizzle
7:17 PM 44.6 °F 37.2 °F 43.7 °F 97% 29.58 in 1.5 mi West 17.3 mph 23.0 mph 0.01 in Rain Light Rain
7:37 PM 44.1 °F 36.8 °F 43.2 °F 97% 29.59 in 2.5 mi West 16.1 mph - 0.01 in   Overcast
7:57 PM 43.9 °F 35.9 °F 43.0 °F 97% 29.59 in 2.0 mi WNW 18.4 mph 26.5 mph 0.01 in   Overcast
8:17 PM 43.7 °F 35.7 °F 42.8 °F 97% 29.60 in 5.0 mi WNW 18.4 mph 25.3 mph N/A   Overcast
8:37 PM 43.2 °F 35.0 °F 41.7 °F 95% 29.62 in 7.0 mi NW 18.4 mph 28.8 mph N/A   Overcast
8:57 PM 42.3 °F 33.8 °F 39.6 °F 90% 29.63 in 7.0 mi NW 18.4 mph 29.9 mph N/A   Overcast
9:17 PM 41.0 °F 32.8 °F 38.5 °F 91% 29.65 in 7.0 mi NW 16.1 mph 24.2 mph N/A   Overcast
9:37 PM 40.1 °F 30.7 °F 37.2 °F 89% 29.66 in 7.0 mi NW 19.6 mph 23.0 mph N/A   Overcast
9:57 PM 38.8 °F 29.1 °F 35.8 °F 89% 29.67 in 10.0 mi NW 19.6 mph 24.2 mph N/A   Overcast
10:17 PM 38.3 °F 30.1 °F 35.1 °F 88% 29.68 in 10.0 mi NW 13.8 mph - N/A   Overcast
10:37 PM 37.8 °F 28.0 °F 34.2 °F 87% 29.69 in 10.0 mi NW 18.4 mph 24.2 mph N/A   Overcast
10:57 PM 37.4 °F 28.9 °F 33.8 °F 87% 29.70 in 10.0 mi NW 13.8 mph 21.9 mph N/A   Overcast
11:17 PM 36.9 °F 28.7 °F 33.4 °F 87% 29.72 in 7.0 mi NNW 12.7 mph 18.4 mph N/A   Overcast
11:37 PM 36.7 °F 29.4 °F 33.4 °F 88% 29.72 in 7.0 mi NW 10.4 mph - N/A   Overcast
11:57 PM 36.9 °F 28.2 °F 33.8 °F 89% 29.72 in 7.0 mi NW 13.8 mph 18.4 mph N/A   Overcast